Location: Bailleul
(50.3375°N, 2.8513°E)
Time: 14:31:08
(UTC+00:00)

Cosmos 1452 Rocket - Pass Details

Date: 16 June 2021
Orbit: 768 x 774 km, 74.1° (Epoch: 04 August)

Event Time Altitude Azimuth Distance (km) Brightness Sun altitude
Rises 20:55:03 0° 194° (SSW) 3,238 6.4 -6.8°
Reaches altitude 10° 20:57:25 10° 192° (SSW) 2,315 5.6 -7.1°
Maximum altitude 21:02:39 70° 110° (ESE) 826 3.5 -7.6°
Drops below altitude 10° 21:07:54 10° 28° (NNE) 2,329 6.4 -8.1°
Sets 21:10:18 0° 26° (NNE) 3,259 7.2 -8.3°
